Torna al catalogo

STARLINK-33922

AttivoComunicazioniVLEO
NORAD 63698·PAYLOAD·🇺🇸 United States

Lanciato Apr 28, 2025 da Vandenberg Space Force Base

Loading…

Prossimi Passaggi (prossime 24 ore)

TLE

AggiornatoSource: CelesTrak SupGP

Epoca: Sep 14, 2026, 21:32 UTC

1 63698C 25087B   26257.89770833  .00032142  00000+0  94990-3 0  2573
2 63698  53.1605  59.7132 0001193  69.9474 240.1439 15.34366686    16

Traccia STARLINK-33922 in tempo reale con AllMySat

Download on the App Store